Regional Weather Roundup
Issued by NWS

Home | Current Version | Previous Version | Graphics & Text | Print | Product List | Glossary On
Versions: 1 2 3 4 5 6 7 8 9 10 11 12 13 14 15 16 17 18 19 20 21 22 23 24 25 26 27 28 29 30 31 32 33 34 35 36 37 38 39 40 41 42 43 44 45 46 47 48 49 50
000
ASUS43 KMKX 211920
RWRWI

WISCONSIN REGIONAL WEATHER ROUNDUP
NATIONAL WEATHER SERVICE MILWAUKEE/SULLIVAN WI
100 PM CST SAT JAN 21 2017

NOTE: "FAIR" INDICATES FEW OR NO CLOUDS BELOW 12,000 FEET WITH NO
SIGNIFICANT WEATHER AND/OR OBSTRUCTIONS TO VISIBILITY.

WIZ001-002-006>008-014>016-023>028-212000-
NORTHWEST WISCONSIN

CITY           SKY/WX    TMP DP  RH WIND       PRES   REMARKS
SUPERIOR ARPT  LGT RAIN  35  35 100 NE7       29.46F WCI  29
ASHLAND        LGT RAIN  36  34  92 NE7       29.46F FOG     WCI  30
HAYWARD        LGT RAIN  38  36  92 NE3       29.41F
SIREN          CLOUDY    37  36  99 E5        29.41F WCI  33
CUMBERLAND     FOG       34  34 100 CALM      29.40S VSB 1
RICE LAKE      CLOUDY    37  36  97 E6        29.42S FOG     WCI  32
CHETEK         CLOUDY    36  36 100 E3        29.40S FOG
LADYSMITH      CLOUDY    38  37  99 E7        29.42F WCI  32
EAU CLAIRE     SNOW      35  35 100 SE5       29.39F VSB 1/2 WCI  31
MENOMONIE        N/A    N/A N/A N/A MISG        N/A
NEW RICHMOND   CLOUDY    36  36 100 E5        29.38F FOG     WCI  32
OSCEOLA        CLOUDY    38  38 100 E6        29.42F WCI  33
$$

WIZ003>005-009-010-017-018-212000-
NORTH CENTRAL WISCONSIN

CITY           SKY/WX    TMP DP  RH WIND       PRES   REMARKS
MANITOWISH WTR CLOUDY    35  35 100 E7        29.42F FOG     WCI  29
ARBOR VITAE    FOG       37  36  96 E10       29.42F VSB 3/4 WCI  29
WOODRUFF       FOG       37  36  96 E10       29.42F VSB 3/4 WCI  29
RHINELANDER    LGT RAIN  36  36 100 E12       29.43F VSB 1/2 WCI  28
EAGLE RIVER    LGT RAIN  35  35 100 E7        29.43F VSB 3/4 WCI  29
LAND O LAKES   FOG       36  36 100 E6        29.47F VSB 3/4 WCI  31
PHILLIPS       CLOUDY    35  35 100 E3        29.41F
TOMAHAWK       CLOUDY    37  36  96 CALM      29.43F FOG
MEDFORD        DRZL/FOG  35  35  99 SE5       29.40S VSB 1/4 WCI  31
MERRILL        CLOUDY    36  36 100 CALM        N/A  FOG
$$

WIZ029-030-035-036-043>047-212000-
CENTRAL WISCONSIN

CITY           SKY/WX    TMP DP  RH WIND       PRES   REMARKS
WAUSAU         FOG       35  35 100 CALM      29.40F VSB 1/2
MOSINEE        FOG       36  36 100 CALM      29.43F VSB 1/8
MARSHFIELD     FOG       35  35 100 SE6       29.40F VSB<1/4 WCI  30
STEVENS POINT  FOG       34  34 100 E5        29.42R VSB 1/4 WCI  30
WAUPACA        FOG       38  38  97 CALM      29.43F VSB 1/4
WAUTOMA        FOG       38  38 100 NE3       29.42F VSB 1/4
WISC RAPIDS    FOG       37  37 100 E5        29.42F VSB 1/4 WCI  33
CAMP DOUGLAS   FOG       37  37 100 CALM      29.40F VSB 1/4
$$

WIZ011>013-019>022-031-037>040-048>050-212000-
NORTHEAST WISCONSIN

CITY           SKY/WX    TMP DP  RH WIND       PRES   REMARKS
ANTIGO         LGT RAIN  33  33 100 E10       29.44F WCI  25
SHAWANO        DRZL/FOG  37  35  95 NE7       29.45F VSB 1/4 WCI  31
OCONTO         CLOUDY    36  36 100 E8        29.48F VSB 1/2 WCI  29
STURGEON BAY   LGT RAIN  39  38  96 E3        29.49F VSB 1/4
GREEN BAY      FOG       37  37 100 NE8       29.45F VSB<1/4 WCI  31
MANITOWOC      FOG       40  39  97 MISG      29.46F VSB<1/4
APPLETON       FOG       37  37 100 E7        29.43F VSB 1/8 WCI  32
CLINTONVILLE   FOG       36  36 100 E3        29.44F VSB 1/2
OSHKOSH        FOG       38  37  97 NE3       29.41F VSB 1/4
$$

WIZ032>034-041-042-053>061-212000-
SOUTHWEST WISCONSIN

CITY           SKY/WX    TMP DP  RH WIND       PRES   REMARKS
LA CROSSE      FOG       41  39  93 S3        29.40F VSB 3/4
SPARTA         FOG       38  38 100 CALM      29.42F VSB 1
VIROQUA        CLOUDY    39  39 100 S3        29.40S VSB<1/4
BOSCOBEL       CLOUDY    42  41  96 CALM      29.42F FOG
PRAIRIE DU CHI CLOUDY    42  41  97 CALM      29.41F FOG
PLATTEVILLE    CLOUDY    44  44 100 SW6       29.42S VSB<1/4
$$

WIZ056-057-062-063-064-067-068-212000-
SOUTH CENTRAL WISCONSIN

CITY           SKY/WX    TMP DP  RH WIND       PRES   REMARKS
REEDSBURG      FOG       39  39 100 CALM      29.40F VSB 1/4
BARABOO/DELLS  FOG       39  39  99 CALM      29.41S VSB<1/4
LONE ROCK      FOG       42  40  92 CALM      29.42F VSB 1/4
MINERAL POINT  FOG       45  45 100 S6        29.41S VSB<1/4
MADISON        DRIZZLE   44  43  96 S7        29.42R FOG
MIDDLETON      CLOUDY    45  45 100 S6        29.42S
WATERTOWN      CLOUDY    46  46 100 S8        29.41F
MONROE         CLOUDY    45  45 100 SW8       29.42S
JANESVILLE     CLOUDY    52  48  87 S13G18    29.42F
$$

WIZ051-052-058>065-066-070>072-212000-
SOUTHEAST WISCONSIN

CITY           SKY/WX    TMP DP  RH WIND       PRES   REMARKS
MILWAUKEE      FOG       46  44  93 SE8       29.44F VSB 1/4
WAUKESHA       MOSUNNY   50  48  93 S5        29.41F
MILWAUKEE/TIMM CLOUDY    48  46  93 S7        29.44F
RACINE         CLOUDY    43  42  97 S7        29.46F FOG
KENOSHA        SUNNY     57  47  69 SW10      29.44F
FOND DU LAC    CLOUDY    44  41  89 SE7       29.41F
SHEBOYGAN      FOG       42  42 100 S7        29.44F VSB 1/4
WEST BEND      CLOUDY    46  46 100 S3        29.43F FOG
JUNEAU         CLOUDY    44  44  99 S7        29.42F FOG
$$

LSZ147-162-212000-
LAKE SUPERIOR

STATION/POSITION TIME  TEMP    WIND        PRES    WAVE
                       AIR SEA DIR/SP/G            HT/PER
                 (UTC) (F)     (DEG/KT/KT) (MB)    (FT/S)
DEVILS ISLAND    1900   35      50/ 11/ 11  999.0F
PORT WING        1830   33      30/ 11/ 12  998.3F
SAXON HARBOR     1840   34      60/  4/  5  998.0F
$$

LMZ867-665-643>646-212000-
LAKE MICHIGAN

STATION/POSITION TIME  TEMP    WIND        PRES    WAVE
                       AIR SEA DIR/SP/G            HT/PER
                 (UTC) (F)     (DEG/KT/KT) (MB)    (FT/S)
NORTHPORT PIER   1901   35      70/  6/ 10  999.3
SISTER BAY       1850   39     100/  9/ 12   N/A
KEWAUNEE LAKESHO 1854   39      CALM  /  1  997.9F
SHEBOYGAN LAKESH 1900   39     190/  5/  5  997.4F
PORT WASHINGTON  1840   40     210/  4/  6  998.3F
KENOSHA   LAKESH 1900   36     170/  7/ 10  997.6
$$

TC  - TEMPERATURE IN CELSIUS
VSB - VISIBILITY IN STATUTE MILES
WCI - WIND CHILL INDEX
HX  - HEAT INDEX





USA.gov is the U.S. government's official web portal to all federal, state and local government web resources and services.